Location: Dziadowski
(50.3833°N, 20.0333°E)
Time: 18:13:49
(UTC+00:00)

ATLAS 2AS CENTAUR R/B - Pass Details

Date: 18 January 2026
Orbit: 1050 x 1161 km, 63.7° (Epoch: 16 February)

Event Time Altitude Azimuth Distance (km) Brightness Sun altitude
Exits shadow 05:04:09 17° 302° (WNW) 2,400 3.9 -13.5°
Maximum altitude 05:08:51 40° 242° (WSW) 1,506 3.2 -12.8°
Drops below altitude 10° 05:15:02 10° 175° (S) 2,867 5.3 -11.9°
Sets 05:17:50 0° 168° (SSE) 3,826 6.0 -11.4°
